QPF
0.00 0.00 0.00 0.00 0.00 0.00 0.00 0.00 0.00 0.00 0.00 0.00 0.00 0.00 0.00 0.00 0.00 0.00 0.00 0.00 0.00 0.00 0.00 0.00 0.00 0.00 0.00 0.00 0.00 0.00 0.00 0.00
0.00 0.00 0.00 0.00 0.00 0.00 0.00 0.00 0.00 0.00 0.00 0.00 0.00 0.00 0.00 0.00 0.00 0.00 0.00 0.00 0.00 0.00 0.00 0.00 0.00 0.00 0.00 0.00 0.00 0.00 0.00 0.00
0.00 0.00 0.00 0.00 0.00 0.00 0.00 0.00 0.00 0.00 0.00 0.00 0.00 0.00 0.00 0.00 0.00 0.00 0.00 0.00 0.00 0.00 0.00 0.00 0.00 0.00 0.00 0.00 0.00 0.00 0.00 0.00
0.00 0.00 0.00 0.00 0.00 0.00 0.00 0.00 0.00 0.00 0.00 0.00 0.00 0.00 0.00 0.00 0.00 0.00 0.00 0.00 0.00 0.00 0.00 0.00 0.00 0.00 0.00 0.00 0.00 0.00 0.00 0.00
0.00 0.00 0.00 0.00 0.00 0.00 0.00 0.00 0.00 0.00 0.00 0.00 0.00 0.00 0.00 0.00 0.00 0.00 0.00 0.00 0.00 0.00 0.00 0.00 0.00 0.00 0.00 0.00 0.00 0.00 0.00 0.00
0.00 0.00 0.00 0.00 0.00 0.00 0.00 0.00 0.00 0.00 0.00 0.00 0.00 0.00 0.00 0.00 0.00 0.00 0.00 0.00 0.00 0.00 0.00 0.00 0.00 0.00 0.00 0.00 0.00 0.00 0.00 0.00
0.00 0.00 0.00 0.00 0.00 0.00 0.00 0.00 0.00 0.00 0.00 0.00 0.00 0.00 0.00 0.00 0.00 0.00 0.00 0.00 0.00 0.00 0.00 0.00 0.00 0.00 0.00 0.00 0.00 0.00 0.00 0.00
0.00 0.00 0.00 0.00 0.00 0.00 0.00 0.00 0.00 0.00 0.00 0.00 0.00 0.00 0.00 0.00 0.00 0.00 0.00 0.00 0.00 0.00 0.00 0.00 0.00 0.00 0.00 0.00 0.00 0.00 0.00 0.00
0.00 0.00 0.00 0.00 0.00 0.00 0.00 0.00 0.00 0.00 0.00 0.00 0.00 0.00 0.00 0.00 0.00 0.00 0.00 0.00 0.00 0.00 0.00 0.00 0.00 0.00 0.00 0.00 0.00 0.00 0.00 0.00
0.00 0.00 0.00 0.00 0.00 0.00 0.00 0.00 0.00 0.00 0.00 0.00 0.00 0.00 0.00 0.00 0.00 0.00 0.00 0.00 0.00 0.00 0.00 0.00 0.00 0.00 0.00 0.00 0.00 0.00 0.00 0.00
0.00 0.00 0.00 0.00 0.00 0.00 0.00 0.00 0.00 0.00 0.00 0.00 0.00 0.00 0.00 0.00 0.00 0.00 0.00 0.00 0.00 0.00 0.00 0.00 0.00 0.00 0.00 0.00 0.00 0.00 0.00 0.00
0.00 0.00 0.00 0.00 0.00 0.00 0.00 0.00 0.00 0.00 0.00 0.00 0.00 0.00 0.00 0.00 0.00 0.00 0.00 0.00 0.00 0.00 0.00 0.00 0.00 0.00 0.00 0.00 0.00 0.00 0.00 0.00
0.00 0.00 0.00 0.00 0.00 0.00 0.00 0.00 0.00 0.00 0.00 0.00 0.00 0.00 0.00 0.00 0.00 0.00 0.00 0.00 0.00 0.00 0.00 0.00 0.00 0.00 0.00 0.00 0.00 0.00 0.00 0.00
0.00 0.00 0.00 0.00 0.00 0.00 0.00 0.00 0.00 0.00 0.00 0.00 0.00 0.00 0.00 0.00 0.00 0.00 0.00 0.00 0.00 0.00 0.00 0.00 0.00 0.00 0.00 0.00 0.00 0.00 0.00 0.00
0.00 0.00 0.00 0.00 0.00 0.00 0.00 0.00 0.00 0.00 0.00 0.00 0.00 0.00 0.00 0.00 0.00 0.00 0.00 0.00 0.00 0.00 0.00 0.00 0.00 0.00 0.00 0.00 0.00 0.00 0.00 0.00
0.00 0.00 0.00 0.00 0.00 0.00 0.00 0.00 0.00 0.00 0.00 0.00 0.00 0.00 0.00 0.00 0.00 0.00 0.00 0.00 0.00 0.00 0.00 0.00 0.00 0.00 0.00 0.00 0.00 0.00 0.00 0.00
0.00 0.00 0.00 0.00 0.00 0.00 0.00 0.00 0.00 0.00 0.00 0.00 0.00 0.00 0.00 0.00 0.00 0.00 0.00 0.00 0.00 0.00 0.00 0.00 0.00 0.00 0.00 0.00 0.00 0.00 0.00 0.00
0.00 0.00 0.00 0.00 0.00 0.00 0.00 0.00 0.00 0.00 0.00 0.00 0.00 0.00 0.00 0.00 0.00 0.00 0.00 0.00 0.00 0.00 0.00 0.00 0.00 0.00 0.00 0.00 0.00 0.00 0.00 0.00
0.00 0.00 0.00 0.00 0.00 0.00 0.00 0.00 0.00 0.00 0.00 0.00 0.00 0.00 0.00 0.00 0.00 0.00 0.00 0.00 0.00 0.00 0.00 0.00 0.00 0.00 0.00 0.00 0.00 0.00 0.00 0.00
MSLP
1027.90 1028.14 1028.33 1028.60 1029.20 1029.31 1029.14 1029.13 1029.18 1028.89 1028.45 1027.92 1027.82 1027.87 1027.95 1028.11 1028.20 1028.28 1028.21 1027.98 1027.79 1027.43 1026.71 1026.71 1026.06 1025.54 1025.21 1025.06 1024.23 1023.33 1022.36 1021.99
1027.64 1028.16 1028.43 1028.44 1029.06 1029.10 1029.20 1029.20 1029.20 1028.71 1028.44 1028.35 1028.11 1028.04 1028.37 1028.24 1028.26 1028.55 1028.57 1028.44 1028.14 1027.68 1027.30 1027.03 1026.86 1026.17 1026.27 1025.74 1025.03 1023.88 1022.60 1022.32
1027.35 1027.82 1028.29 1028.72 1029.02 1029.26 1029.19 1029.26 1029.28 1029.13 1028.49 1028.48 1028.68 1028.74 1028.40 1028.46 1028.56 1028.52 1028.76 1028.50 1028.43 1028.00 1027.92 1027.50 1027.33 1026.73 1026.49 1026.29 1025.86 1024.87 1023.64 1022.91
1026.69 1027.33 1027.85 1028.34 1028.76 1029.26 1029.18 1029.30 1029.33 1029.51 1029.21 1028.71 1028.40 1028.09 1028.03 1028.36 1028.40 1028.50 1028.54 1028.70 1028.53 1028.47 1028.25 1028.02 1027.72 1027.17 1026.97 1026.67 1026.35 1025.80 1024.81 1023.77
1026.14 1026.86 1027.53 1028.27 1028.65 1029.10 1029.14 1029.31 1029.29 1029.40 1029.65 1029.15 1028.99 1028.42 1028.35 1028.51 1028.46 1028.59 1028.46 1028.60 1028.56 1028.49 1028.38 1028.19 1027.99 1027.49 1027.44 1027.13 1026.84 1026.53 1025.74 1024.81
1025.81 1026.44 1026.95 1027.67 1028.38 1028.82 1029.14 1029.22 1029.31 1029.44 1029.69 1029.63 1029.32 1029.24 1028.90 1028.58 1028.53 1028.47 1028.21 1028.17 1028.30 1028.31 1028.31 1028.23 1028.10 1027.72 1027.57 1027.44 1027.22 1026.89 1026.39 1025.76
1025.61 1026.28 1026.94 1027.39 1028.44 1028.85 1029.07 1029.10 1028.92 1029.11 1029.36 1029.48 1029.44 1029.34 1029.18 1028.94 1028.70 1028.32 1028.09 1027.85 1027.86 1027.98 1028.31 1028.21 1027.99 1027.82 1027.66 1027.39 1027.26 1026.91 1026.76 1026.35
1025.58 1026.12 1026.73 1027.24 1027.80 1028.46 1028.80 1028.81 1028.70 1028.76 1028.90 1029.09 1029.12 1029.07 1029.03 1028.80 1028.41 1028.05 1028.07 1027.81 1027.65 1027.62 1027.98 1027.90 1027.77 1027.66 1027.49 1027.30 1027.11 1026.82 1026.54 1026.48
1025.29 1025.81 1026.45 1027.10 1027.84 1028.11 1028.41 1028.48 1028.46 1028.47 1028.64 1028.65 1028.62 1028.60 1028.49 1028.30 1027.98 1028.01 1027.88 1027.72 1027.53 1027.47 1027.56 1027.65 1027.53 1027.36 1027.17 1027.02 1026.73 1026.43 1026.25 1026.14
1024.96 1025.61 1026.44 1026.92 1027.36 1027.80 1028.31 1028.63 1028.64 1028.58 1028.60 1028.66 1028.68 1028.55 1028.41 1028.22 1028.02 1027.86 1027.70 1027.55 1027.20 1026.97 1027.14 1027.22 1027.08 1026.95 1026.83 1026.68 1026.42 1026.09 1025.80 1025.68
1024.69 1025.43 1026.22 1026.88 1027.26 1027.68 1028.27 1028.67 1028.71 1028.81 1029.16 1029.24 1029.01 1028.94 1028.70 1028.51 1028.25 1027.99 1027.76 1027.54 1027.34 1027.14 1026.99 1026.76 1026.48 1026.27 1026.13 1025.98 1025.78 1025.51 1025.24 1024.98
1024.65 1025.35 1026.01 1027.05 1027.60 1028.03 1028.60 1028.98 1029.10 1029.41 1029.58 1029.57 1029.53 1029.43 1029.30 1029.02 1028.76 1028.49 1028.29 1028.04 1027.64 1027.30 1026.89 1026.43 1026.19 1025.83 1025.49 1025.22 1025.04 1024.81 1024.55 1024.34
1024.66 1025.64 1026.51 1027.23 1028.05 1028.53 1028.94 1029.65 1029.69 1029.88 1029.90 1029.94 1029.99 1030.00 1029.90 1029.57 1029.26 1029.03 1028.84 1028.54 1028.13 1027.60 1027.08 1026.60 1025.96 1025.55 1025.15 1024.78 1024.43 1024.12 1023.77 1023.46
1025.74 1026.80 1027.48 1028.09 1028.73 1029.31 1029.65 1030.07 1030.25 1030.28 1030.30 1030.35 1030.40 1030.45 1030.22 1029.94 1029.70 1029.45 1029.12 1028.80 1028.42 1027.94 1027.35 1026.87 1026.38 1025.76 1025.17 1024.54 1024.06 1023.62 1023.17 1022.73
1026.79 1027.94 1028.66 1029.25 1029.73 1029.99 1030.23 1030.62 1030.82 1030.84 1030.70 1030.69 1030.64 1030.68 1030.51 1030.20 1029.97 1029.71 1029.43 1029.02 1028.60 1028.09 1027.57 1027.08 1026.61 1026.14 1025.41 1024.80 1024.20 1023.84 1023.36 1022.56
1027.78 1028.59 1029.33 1029.89 1030.43 1030.65 1030.90 1031.12 1031.28 1031.22 1031.02 1030.87 1030.72 1030.69 1030.51 1030.23 1029.98 1029.87 1029.52 1029.15 1028.63 1028.29 1027.73 1027.28 1026.73 1026.29 1025.43 1025.63 1025.35 1024.74 1024.03 1023.17
1028.57 1029.51 1030.04 1030.44 1030.82 1031.10 1031.36 1031.48 1031.49 1031.43 1031.20 1030.98 1030.80 1030.65 1030.47 1030.28 1030.03 1029.62 1029.23 1028.94 1028.55 1028.23 1027.79 1027.21 1026.71 1026.31 1026.33 1026.48 1026.15 1025.33 1024.58 1023.69
1029.23 1030.12 1030.61 1030.99 1031.36 1031.55 1031.63 1031.63 1031.52 1031.38 1031.23 1030.98 1030.82 1030.77 1030.59 1030.39 1030.08 1029.78 1029.28 1028.82 1028.45 1027.93 1027.51 1026.94 1026.51 1026.22 1026.18 1025.96 1025.60 1024.88 1024.13 1023.58
1029.96 1030.56 1031.06 1031.41 1031.59 1031.88 1032.07 1031.87 1031.58 1031.30 1031.18 1030.98 1030.98 1030.90 1030.70 1030.43 1030.16 1029.67 1029.24 1028.66 1028.11 1027.53 1026.91 1026.29 1025.61 1025.10 1025.04 1024.87 1024.69 1024.02 1023.23 1022.79
Thickness
5636 5634 5632 5628 5620 5616 5614 5610 5607 5605 5606 5607 5606 5604 5601 5597 5594 5591 5587 5585 5583 5582 5583 5581 5583 5585 5588 5590 5596 5604 5612 5614
5635 5629 5626 5624 5616 5613 5609 5605 5602 5602 5602 5599 5599 5596 5592 5591 5587 5582 5578 5576 5576 5576 5574 5572 5571 5574 5573 5576 5581 5591 5601 5604
5629 5625 5620 5614 5609 5605 5603 5599 5596 5594 5596 5594 5590 5586 5585 5582 5578 5576 5572 5570 5568 5567 5565 5564 5562 5565 5565 5566 5568 5575 5585 5591
5630 5625 5620 5615 5607 5600 5598 5594 5590 5586 5585 5584 5584 5584 5582 5577 5574 5570 5567 5563 5562 5560 5558 5556 5556 5557 5557 5558 5559 5562 5568 5577
5632 5625 5616 5608 5603 5598 5594 5590 5586 5581 5575 5575 5573 5575 5572 5570 5568 5563 5561 5558 5556 5554 5552 5551 5550 5551 5550 5550 5550 5551 5556 5562
5629 5623 5618 5610 5601 5594 5588 5584 5579 5574 5569 5565 5563 5560 5561 5562 5560 5559 5559 5555 5552 5550 5548 5546 5545 5545 5544 5544 5544 5545 5547 5550
5626 5619 5612 5606 5594 5588 5584 5579 5577 5571 5565 5560 5556 5553 5551 5550 5551 5552 5552 5551 5549 5545 5540 5539 5539 5538 5538 5538 5538 5539 5538 5541
5621 5614 5606 5600 5592 5584 5578 5575 5571 5568 5563 5556 5551 5548 5545 5544 5544 5545 5542 5542 5541 5540 5535 5534 5532 5531 5531 5531 5531 5532 5533 5532
5618 5612 5603 5594 5584 5579 5573 5569 5565 5561 5556 5552 5547 5544 5542 5540 5539 5535 5533 5532 5532 5530 5529 5526 5525 5524 5523 5523 5524 5525 5525 5525
5614 5607 5597 5589 5582 5574 5566 5559 5555 5552 5548 5543 5538 5534 5532 5530 5529 5527 5525 5523 5524 5523 5520 5517 5516 5515 5514 5513 5514 5516 5516 5517
5611 5602 5593 5584 5576 5568 5560 5552 5546 5541 5533 5527 5525 5521 5519 5516 5515 5514 5513 5512 5510 5509 5507 5506 5506 5505 5504 5504 5504 5505 5507 5509
5605 5597 5588 5575 5566 5558 5549 5541 5534 5526 5520 5515 5511 5507 5504 5502 5500 5498 5496 5495 5495 5494 5494 5495 5493 5493 5494 5494 5494 5495 5496 5497
5600 5588 5577 5567 5555 5545 5537 5527 5521 5513 5508 5502 5497 5493 5490 5488 5487 5485 5482 5479 5477 5477 5477 5477 5480 5480 5480 5480 5481 5483 5484 5485
5583 5570 5560 5550 5540 5529 5521 5513 5506 5501 5494 5489 5483 5479 5476 5474 5472 5469 5467 5465 5463 5463 5462 5461 5461 5463 5464 5467 5468 5470 5472 5474
5566 5552 5541 5531 5521 5514 5506 5497 5490 5485 5481 5475 5470 5465 5462 5460 5456 5453 5451 5449 5448 5447 5447 5446 5445 5444 5445 5446 5449 5451 5452 5457
5548 5538 5527 5516 5505 5496 5488 5481 5475 5471 5467 5463 5458 5453 5449 5445 5443 5438 5435 5433 5432 5429 5429 5428 5428 5427 5427 5423 5422 5424 5426 5430
5533 5521 5510 5501 5491 5482 5473 5467 5461 5457 5453 5448 5444 5440 5436 5431 5428 5426 5424 5420 5417 5414 5412 5412 5410 5408 5404 5398 5395 5395 5397 5401
5520 5506 5494 5484 5475 5467 5459 5453 5449 5445 5440 5436 5431 5425 5420 5416 5412 5408 5407 5405 5402 5400 5397 5395 5392 5388 5383 5378 5376 5374 5375 5375
5503 5492 5479 5469 5461 5452 5444 5439 5436 5433 5427 5423 5416 5410 5405 5401 5396 5394 5391 5389 5387 5385 5383 5380 5379 5375 5369 5362 5356 5353 5353 5352